sat.trackr.live / text

‹ back to catalog

STARLINK-35324

NORAD 65838 · 2025-221R

PAYLOAD ACTIVE UNKNOWN

§ Identity

Operator
Country
US
Launch date
2025-09-29
Launch site
AFWTR
Launch vehicle
Mass (kg)
RCS (m²)

Purposes: comms

External: N2YO · Heavens-Above · Gunter

§ Orbital elements

Epoch: 2026-09-20T23:36:52.371072Z

Period
93.85 min
Inclination
53.1597°
Eccentricity
0.0001482
Mean motion
15.34402666 rev/d
Perigee alt
461.7 km
Apogee alt
463.7 km
Semi-major
6,840.8 km
B*
3.3091e-4
RAAN
259.1122°
Arg perigee
80.4901°
Mean anomaly
279.6269°
Rev number
5,466

§ Raw data

STARLINK-353241 65838U 25221R   26263.98393948  .00010821  00000+0  33091-3 0  99942 65838  53.1597 259.1122 0001482  80.4901 279.6269 15.34402666 54660

JSON: /api/v1/satellites/65838 · /tle

For live sub-satellite position, see the globe view (requires WebGL).

§ Visibility from observer

Set your observer location to see the next 7 days of passes ≥ 10°. The values pass through the URL so the page stays shareable.

No JS? Fill the form by hand. The geolocation button needs JavaScript.